This demonstration page uses our WeatherBlox Daily Observations layout. Learn more.

Left ArrowRight Arrow

39.51506, -84.39828

Hourly Observations for January 2, 2015

Temp ( °F °C ) Dew Point ( °F °C ) Humidity (%) Winds ( mph kmh ) Pressure ( in mb ) Visibility ( mi km ) Precip ( " mm )
12:53 am 00:53 Clear 30 -1.1 21 -6.1 69 69 SW 9 15 30.21 1023 10 16 0.00 0.00
1:53 am 01:53 Mostly Clear 30 -1.1 22 -5.6 72 72 WSW 6 9 30.22 1023 10 16 0.00 0.00
2:53 am 02:53 Cloudy 31 -0.6 22 -5.6 69 69 SW 8 13 30.24 1024 10 16 0.00 0.00
3:53 am 03:53 Clear 30 -1.1 23 -5 75 75 SW 9 15 30.26 1025 10 16 0.00 0.00
4:53 am 04:53 Clear 30 -1.1 23 -5 75 75 SW 7 11 30.25 1025 10 16 0.00 0.00
5:53 am 05:53 Mostly Cloudy 30 -1.1 23 -5 75 75 WSW 7 11 30.26 1025 10 16 0.00 0.00
6:53 am 06:53 Mostly Cloudy 30 -1.1 24 -4.4 79 79 WSW 7 11 30.28 1025 10 16 0.00 0.00
7:53 am 07:53 Cloudy 31 -0.6 24 -4.4 76 76 WSW 5 7 30.29 1026 10 16 0.00 0.00
8:53 am 08:53 Cloudy 31 -0.6 24 -4.4 76 76 SW 5 7 30.32 1027 10 16 0.00 0.00
9:53 am 09:53 Cloudy 32 0 23 -5 69 69 WSW 6 9 30.34 1027 10 16 0.00 0.00
10:53 am 10:53 Cloudy 33 0.6 22 -5.6 64 64 W 8 13 30.36 1028 10 16 0.00 0.00
11:53 am 11:53 Sunny 35 1.7 21 -6.1 57 57 WSW 6 9 30.34 1028 10 16 0.00 0.00
12:53 pm 12:53 Mostly Cloudy 36 2.2 22 -5.6 57 57 SW 6 9 30.32 1027 10 16 0.00 0.00
1:53 pm 13:53 Mostly Sunny 38 3.3 23 -5 55 55 VRB 3 6 30.31 1026 10 16 0.00 0.00
2:53 pm 14:53 Sunny 39 3.9 22 -5.6 50 50 VRB 5 7 30.30 1026 10 16 0.00 0.00
3:53 pm 15:53 Sunny 39 3.9 23 -5 53 53 S 5 7 30.32 1027 10 16 0.00 0.00
4:53 pm 16:53 Sunny 37 2.8 23 -5 57 57 SSW 3 6 30.31 1026 10 16 0.00 0.00
5:53 pm 17:53 Clear 34 1.1 23 -5 64 64 S 7 11 30.33 1027 10 16 0.00 0.00
6:53 pm 18:53 Mostly Clear 34 1.1 26 -3.3 73 73 SE 3 6 30.35 1028 10 16 0.00 0.00
7:53 pm 19:53 Clear 33 0.6 27 -2.8 78 78 SE 6 9 30.35 1028 10 16 0.00 0.00
8:53 pm 20:53 Clear 32 0 27 -2.8 82 82 ESE 5 7 30.33 1027 10 16 0.00 0.00
9:53 pm 21:53 Clear 32 0 28 -2.2 85 85 ESE 5 7 30.30 1026 10 16 0.00 0.00
10:53 pm 22:53 Partly Cloudy 32 0 28 -2.2 85 85 E 5 7 30.28 1026 9 14 0.00 0.00
11:53 pm 23:53 Cloudy 34 1.1 30 -1.1 85 85 ESE 7 11 30.27 1025 9 14 0.00 0.00

Powered by AerisWeather